Weather History for KCHS - April, 2014

Change the Weather History Date:

Saturday, April 5, 2014

  Actual Average Record
Temperature  
Mean Temperature 75 °F 62 °F  
Max Temperature 85 °F 74 °F 89 °F (1978)
Min Temperature 64 °F 51 °F 34 °F (1987)
Degree Days  
Heating Degree Days 0 4  
Month to date heating degree days 0 23  
Since 1 July heating degree days 1837 1898  
Cooling Degree Days 10 2  
Month to date cooling degree days 33 9  
Year to date cooling degree days 52 43  
Growing Degree Days 24 (Base 50)    
Moisture  
Dew Point 58 °F    
Average Humidity 58    
Maximum Humidity 81    
Minimum Humidity 34    
Precipitation  
Precipitation 0.00 in 0.09 in 1.48 in (1993)
Month to date precipitation 0.00 0.51  
Year to date precipitation 9.78 10.89  
Sea Level Pressure  
Sea Level Pressure 29.96 in    
Wind  
Wind Speed 9 mph (WSW)    
Max Wind Speed 18 mph    
Max Gust Speed 28 mph    
Visibility 10 miles    
Events      
T = Trace of Precipitation, MM = Missing Value Source: NWS Daily Summary

Daily Weather History Graph

Daily Weather History Graph

Search for Another Location

Airport or City:

Trip Planner

Search our weather history database for the weather conditions in past years. The results will help you decide how hot, cold, wet, or windy it might be!

Date:

Astronomy

Apr. 05, 2014 Rise Set
Actual Time 7:02 AM EDT 7:43 PM EDT
Civil Twilight 6:37 AM EDT 8:08 PM EDT
Nautical Twilight 6:08 AM EDT 8:37 PM EDT
Astronomical Twilight 5:38 AM EDT 9:07 PM EDT
Moon 11:20 AM EDT (4/5) 12:40 AM EDT (4/5)
Length of Visible Light 13h 30m
Length of Day
12h 40m
Waxing Crescent, 34% of the Moon is Illuminated
Apr 5
Waxing Crescent
Apr 7
First Quarter
Apr 15
Full
Apr 22
Last Quarter
Apr 29
New

Hourly Weather History & Observations

Time (EDT) Temp. Heat Index Dew Point Humidity Pressure Visibility Wind Dir Wind Speed Gust Speed Precip Events Conditions
12:56 AM 70.0 °F - 60.1 °F 71% 29.93 in 10.0 mi SW 13.8 mph 21.9 mph N/A   Scattered Clouds
1:56 AM 68.0 °F - 60.1 °F 76% 29.94 in 10.0 mi SW 9.2 mph - N/A   Scattered Clouds
2:56 AM 69.1 °F - 60.1 °F 73% 29.95 in 10.0 mi West 5.8 mph - N/A   Scattered Clouds
3:56 AM 68.0 °F - 60.1 °F 76% 29.94 in 10.0 mi WSW 8.1 mph - N/A   Partly Cloudy
4:56 AM 66.9 °F - 60.1 °F 79% 29.94 in 10.0 mi West 6.9 mph - N/A   Clear
5:56 AM 66.0 °F - 57.9 °F 75% 29.94 in 10.0 mi West 4.6 mph - N/A   Scattered Clouds
6:56 AM 64.0 °F - 57.9 °F 80% 29.96 in 10.0 mi WSW 4.6 mph - N/A   Scattered Clouds
7:56 AM 66.9 °F - 57.9 °F 73% 29.98 in 10.0 mi West 5.8 mph - N/A   Mostly Cloudy
8:56 AM 69.1 °F - 57.0 °F 65% 29.98 in 10.0 mi West 6.9 mph - N/A   Overcast
9:56 AM 72.0 °F - 57.0 °F 59% 29.98 in 10.0 mi WNW 8.1 mph - N/A   Mostly Cloudy
10:56 AM 75.0 °F - 55.9 °F 51% 30.00 in 10.0 mi WNW 6.9 mph - N/A   Mostly Cloudy
11:56 AM 77.0 °F - 55.9 °F 48% 30.00 in 10.0 mi WNW 9.2 mph - N/A   Mostly Cloudy
12:56 PM 80.1 °F 80.1 °F 55.0 °F 42% 29.99 in 10.0 mi West 11.5 mph - N/A   Mostly Cloudy
1:56 PM 84.0 °F 83.0 °F 55.9 °F 38% 29.96 in 10.0 mi WSW 11.5 mph 20.7 mph N/A   Scattered Clouds
2:56 PM 84.0 °F 82.6 °F 54.0 °F 35% 29.94 in 10.0 mi West 12.7 mph 19.6 mph N/A   Mostly Cloudy
3:56 PM 82.9 °F 82.0 °F 55.0 °F 38% 29.91 in 10.0 mi West 11.5 mph 20.7 mph N/A   Mostly Cloudy
4:17 PM 82.4 °F 82.0 °F 57.2 °F 42% 29.92 in 10.0 mi SSW 15.0 mph - N/A   Mostly Cloudy
4:56 PM 81.0 °F 81.3 °F 59.0 °F 47% 29.92 in 10.0 mi SSW 15.0 mph - N/A   Mostly Cloudy
5:56 PM 79.0 °F - 59.0 °F 50% 29.92 in 10.0 mi SSW 13.8 mph - N/A   Mostly Cloudy
6:56 PM 75.0 °F - 59.0 °F 57% 29.93 in 10.0 mi SSW 10.4 mph - N/A   Mostly Cloudy
7:56 PM 71.1 °F - 59.0 °F 66% 29.95 in 10.0 mi SSW 9.2 mph - N/A   Scattered Clouds
8:56 PM 68.0 °F - 60.1 °F 76% 29.97 in 10.0 mi SSW 8.1 mph - N/A   Scattered Clouds
9:56 PM 69.1 °F - 59.0 °F 70% 29.99 in 10.0 mi SW 8.1 mph - N/A   Mostly Cloudy
10:56 PM 66.9 °F - 59.0 °F 76% 30.00 in 10.0 mi SW 9.2 mph - N/A   Mostly Cloudy
11:56 PM 68.0 °F - 59.0 °F 73% 30.01 in 10.0 mi WSW 8.1 mph - N/A   Mostly Cloudy